Weather History for Hamilton, OH

Change the Weather History Date:

Tuesday, December 4, 2012

  Actual Average (KCVG) Record (KCVG)
Temperature  
Mean Temperature 50 °F 38 °F  
Max Temperature 66 °F 45 °F 72 °F (1998)
Min Temperature 35 °F 30 °F 10 °F (1991)
Degree Days  
Heating Degree Days 14 28  
Month to date heating degree days 108  
Since 1 July heating degree days 1068  
Cooling Degree Days 0 0  
Month to date cooling degree days 0  
Year to date cooling degree days 1121  
Moisture  
Dew Point 50 °F    
Average Humidity 87    
Maximum Humidity 100    
Minimum Humidity 67    
Precipitation  
Precipitation 0.41 in 0.12 in 2.36 in (1880)
Month to date precipitation 0.44  
Year to date precipitation 39.59  
Snow  
Snow 0.00 in 0.10 in 3.50 in (1898)
Month to date snowfall 0.4  
Since 1 July snowfall 1.2  
Snow Depth -    
Sea Level Pressure  
Sea Level Pressure 30.10 in    
Wind  
Wind Speed 6 mph (WSW)    
Max Wind Speed 20 mph    
Max Gust Speed 29 mph    
Visibility 6 miles    
Events Fog , Rain    
T = Trace of Precipitation, MM = Missing Value Source: NWS Daily Summary

Daily Weather History Graph

Daily Weather History Graph

Search for Another Location

Airport:

Trip Planner

Search our weather history database for the weather conditions in past years. The results will help you decide how hot, cold, wet, or windy it might be!

Date:

Astronomy

Dec. 04, 2012 Rise Set
Actual Time 7:42 AM EST 5:14 PM EST
Civil Twilight 7:12 AM EST 5:44 PM EST
Nautical Twilight 6:39 AM EST 6:17 PM EST
Astronomical Twilight 6:06 AM EST 6:50 PM EST
Moon 10:59 PM EST (12/4) 11:37 AM EST (12/4)
Length of Visible Light 10h 32m
Length of Day
9h 32m
Waning Gibbous, 69% of the Moon is Illuminated
Dec 4
Waning Gibbous
Dec 6
Last Quarter
Dec 13
New
Dec 20
First Quarter
Dec 28
Full

Hourly Weather History & Observations

Time (EST) Temp. Windchill Dew Point Humidity Pressure Visibility Wind Dir Wind Speed Gust Speed Precip Events Conditions
1:53 AM 62.1 °F - 51.1 °F 67% 30.09 in 10.0 mi South 4.6 mph - N/A   Mostly Cloudy
2:53 AM 62.1 °F - 51.1 °F 67% 30.09 in 10.0 mi Variable 4.6 mph - N/A   Overcast
3:53 AM 61.0 °F - 50.0 °F 67% 30.08 in 10.0 mi SSW 3.5 mph - N/A   Mostly Cloudy
4:53 AM 61.0 °F - 50.0 °F 67% 30.07 in 10.0 mi Calm Calm - N/A   Overcast
6:53 AM 61.0 °F - 50.0 °F 67% 30.08 in 10.0 mi SSE 4.6 mph - N/A   Overcast
7:53 AM 61.0 °F - 51.1 °F 70% 30.08 in 10.0 mi South 4.6 mph - N/A   Overcast
8:53 AM 63.0 °F - 52.0 °F 67% 30.07 in 10.0 mi SSW 10.4 mph - N/A   Overcast
9:39 AM 64.4 °F - 53.6 °F 68% 30.08 in 10.0 mi SSW 8.1 mph - N/A   Mostly Cloudy
9:53 AM 64.0 °F - 54.0 °F 70% 30.08 in 10.0 mi SSW 8.1 mph 16.1 mph N/A   Overcast
10:05 AM 64.4 °F - 53.6 °F 68% 30.08 in 10.0 mi Variable 6.9 mph 18.4 mph N/A   Overcast
10:53 AM 64.9 °F - 55.0 °F 70% 30.07 in 10.0 mi SSW 13.8 mph 20.7 mph N/A   Overcast
11:26 AM 64.4 °F - 55.4 °F 73% 30.07 in 10.0 mi SW 11.5 mph 18.4 mph N/A   Overcast
11:53 AM 66.0 °F - 55.9 °F 70% 30.05 in 10.0 mi SSW 10.4 mph 17.3 mph N/A   Overcast
12:53 PM 66.0 °F - 57.0 °F 73% 30.03 in 10.0 mi SW 12.7 mph 21.9 mph N/A   Overcast
1:51 PM 62.6 °F - 59.0 °F 88% 30.02 in 1.5 mi WSW 5.8 mph - 0.10 in Rain Heavy Rain
1:53 PM 61.0 °F - 59.0 °F 93% 30.02 in 0.8 mi SW 5.8 mph - 0.13 in Rain Heavy Rain
2:03 PM 62.6 °F - 60.8 °F 94% 30.02 in 1.8 mi WSW 4.6 mph - 0.02 in Rain Light Rain
2:06 PM 62.6 °F - 60.8 °F 94% 30.02 in 3.0 mi WSW 3.5 mph - 0.02 in Rain Light Rain
2:16 PM 62.6 °F - 60.8 °F 94% 30.02 in 1.8 mi WSW 3.5 mph - 0.05 in Rain Light Rain
2:20 PM 62.6 °F - 60.8 °F 94% 30.02 in 1.5 mi WSW 3.5 mph - 0.06 in Rain Heavy Rain
2:26 PM 62.6 °F - 60.8 °F 94% 30.02 in 2.0 mi WSW 5.8 mph - 0.07 in Rain Rain
2:31 PM 62.6 °F - 60.8 °F 94% 30.02 in 3.0 mi SSW 3.5 mph - 0.08 in Rain Light Rain
2:53 PM 62.1 °F - 60.1 °F 93% 30.01 in 6.0 mi West 3.5 mph - 0.08 in   Overcast
3:24 PM 60.8 °F - 60.8 °F 100% 30.02 in 1.8 mi WSW 4.6 mph - 0.03 in Rain Light Rain
3:30 PM 60.8 °F - 60.8 °F 100% 30.02 in 1.2 mi West 5.8 mph - 0.03 in Rain Light Rain
3:35 PM 60.8 °F - 60.8 °F 100% 30.03 in 2.0 mi West 6.9 mph - 0.04 in Rain Light Rain
3:39 PM 60.8 °F - 60.8 °F 100% 30.03 in 1.5 mi SW 5.8 mph - 0.06 in Rain Rain
3:53 PM 57.9 °F - 55.0 °F 90% 30.05 in 5.0 mi NNW 19.6 mph 25.3 mph 0.11 in Rain Light Rain
4:00 PM 53.6 °F - 51.8 °F 94% 30.05 in 3.0 mi NNW 18.4 mph 28.8 mph 0.02 in Rain Rain
4:07 PM 53.6 °F - 51.8 °F 94% 30.04 in 6.0 mi North 15.0 mph - 0.02 in Rain Light Rain
4:16 PM 53.6 °F - 50.0 °F 88% 30.06 in 7.0 mi NNW 15.0 mph 23.0 mph 0.03 in Rain Rain
4:53 PM 51.1 °F - 48.0 °F 89% 30.10 in 10.0 mi NW 12.7 mph - 0.04 in   Overcast
5:08 PM 51.8 °F - 48.2 °F 88% 30.11 in 9.0 mi NNW 10.4 mph - 0.01 in Rain Light Rain
5:37 PM 48.2 °F - 44.6 °F 87% 30.13 in 6.0 mi North 10.4 mph - 0.03 in Rain Rain
5:53 PM 48.0 °F - 42.1 °F 80% 30.14 in 10.0 mi North 10.4 mph 17.3 mph 0.04 in Rain Light Rain
6:11 PM 46.4 °F 44.3 °F 42.8 °F 87% 30.15 in 10.0 mi North 4.6 mph - 0.00 in Rain Light Rain
6:53 PM 46.9 °F - 42.1 °F 83% 30.18 in 10.0 mi Calm Calm - 0.01 in Rain Light Rain
7:53 PM 46.0 °F - 44.1 °F 93% 30.19 in 10.0 mi Calm Calm - 0.00 in   Overcast
8:53 PM 45.0 °F - 43.0 °F 93% 30.20 in 10.0 mi Calm Calm - N/A   Mostly Cloudy
9:53 PM 42.1 °F - 39.9 °F 92% 30.22 in 5.0 mi Calm Calm - N/A   Clear
9:57 PM 41.0 °F - 39.2 °F 93% 30.21 in 1.5 mi Calm Calm - N/A   Clear
10:21 PM 39.2 °F - 37.4 °F 93% 30.22 in 0.8 mi Calm Calm - N/A   Clear
10:39 PM 37.4 °F - 37.4 °F 100% 30.22 in 0.5 mi Calm Calm - N/A Fog Fog
10:47 PM 37.4 °F - 37.4 °F 100% 30.22 in 1.8 mi Calm Calm - N/A   Clear
10:50 PM 37.4 °F - 37.4 °F 100% 30.22 in 3.0 mi Calm Calm - N/A   Clear
10:53 PM 37.9 °F - 37.0 °F 97% 30.22 in 4.0 mi Calm Calm - N/A   Clear
10:57 PM 37.4 °F - 35.6 °F 93% 30.22 in 1.5 mi Calm Calm - N/A   Clear
11:05 PM 37.4 °F - 35.6 °F 93% 30.21 in 0.5 mi Calm Calm - N/A Fog Fog
11:38 PM 35.6 °F - 35.6 °F 100% 30.22 in 1.8 mi Calm Calm - N/A   Clear
11:40 PM 35.6 °F - 35.6 °F 100% 30.22 in 4.0 mi Calm Calm - N/A   Clear
11:53 PM 36.0 °F - 35.1 °F 97% 30.23 in 7.0 mi Calm Calm - N/A   Clear